Zurück zum Katalog

STARLINK-34481

AktivKommunikationVLEO
NORAD 65104·PAYLOAD·🇺🇸 United States

Gestartet Aug 4, 2025 von Cape Canaveral Space Force Station

Loading…

Nächste Überflüge (nächste 24 Stunden)

TLE

AktuellSource: CelesTrak SupGP

Epoche: Sep 15, 2026, 02:29 UTC

1 65104C 25167AC  26258.10395833 -.00048655  00000+0 -14374-2 0  2580
2 65104  53.1572 219.0851 0001473  97.1643 103.5539 15.34416516    15

Verfolge STARLINK-34481 in Echtzeit mit AllMySat

Download on the App Store